| time (UTC) | temp F | wind direction | speed MPH | gust MPH | rain 1hr in | rain 24hr in | rain mn in | humidity % | barometer mb |
| 20260505183014 | 54 | 311 | 1.0 | 6.0 | 0.00 | 0.00 | 0.00 | 73 | 1015.9 |
| 20260505181509 | 55 | 275 | 1.0 | 6.0 | 0.00 | 0.00 | 0.00 | 71 | 1015.9 |
| 20260505180020 | 54 | 312 | 1.0 | 7.0 | 0.00 | 0.00 | 0.00 | 71 | 1015.8 |
| 20260505174515 | 55 | 258 | 1.0 | 8.0 | 0.00 | 0.00 | 0.00 | 70 | 1015.9 |
| 20260505173008 | 55 | 268 | 2.0 | 8.0 | 0.00 | 0.00 | 0.00 | 72 | 1015.9 |
| 20260505171521 | 55 | 321 | 2.0 | 8.0 | 0.00 | 0.00 | 0.00 | 70 | 1016.0 |
| 20260505170037 | 55 | 316 | 2.0 | 8.0 | 0.00 | 0.00 | 0.00 | 72 | 1016.0 |
| 20260505164533 | 55 | 349 | 3.0 | 7.0 | 0.00 | 0.00 | 0.00 | 70 | 1016.1 |
| 20260505163041 | 55 | 289 | 2.0 | 8.0 | 0.00 | 0.00 | 0.00 | 70 | 1016.1 |
| 20260505161547 | 56 | 330 | 3.0 | 8.0 | 0.00 | 0.00 | 0.00 | 68 | 1016.1 |
| 20260505153048 | 54 | 286 | 3.0 | 7.0 | 0.00 | 0.00 | 0.00 | 72 | 1016.1 |
| 20260505151547 | 54 | 319 | 2.0 | 5.0 | 0.00 | 0.00 | 0.00 | 71 | 1016.0 |
| 20260505124521 | 54 | 25 | 3.0 | 9.0 | 0.00 | 0.00 | 0.00 | 69 | 1016.1 |
| 20260505123017 | 55 | 356 | 2.0 | 8.0 | 0.00 | 0.00 | 0.00 | 72 | 1016.0 |
| 20260505121510 | 54 | 276 | 3.0 | 7.0 | 0.00 | 0.00 | 0.00 | 74 | 1016.2 |
| 20260505120026 | 53 | 63 | 4.0 | 15.0 | 0.00 | 0.00 | 0.00 | 76 | 1016.4 |
| 20260505114519 | 54 | 304 | 4.0 | 10.0 | 0.00 | 0.00 | 0.00 | 75 | 1016.4 |
| 20260505113011 | 54 | 314 | 4.0 | 10.0 | 0.00 | 0.00 | 0.00 | 73 | 1016.3 |
| 20260505111539 | 53 | 326 | 3.0 | 10.0 | 0.00 | 0.00 | 0.00 | 73 | 1016.4 |
| 20260505101537 | 50 | 316 | 3.0 | 7.0 | 0.00 | 0.00 | 0.00 | 82 | 1016.4 |
| 20260505100040 | 50 | 290 | 3.0 | 9.0 | 0.00 | 0.00 | 0.00 | 85 | 1016.3 |
| 20260505094534 | 52 | 359 | 4.0 | 9.0 | 0.00 | 0.00 | 0.00 | 82 | 1016.4 |
| 20260505093050 | 53 | 264 | 2.0 | 9.0 | 0.00 | 0.00 | 0.00 | 81 | 1016.3 |
| 20260505091543 | 52 | 350 | 4.0 | 9.0 | 0.00 | 0.00 | 0.00 | 82 | 1016.2 |
| 20260505090039 | 52 | 338 | 2.0 | 5.0 | 0.00 | 0.00 | 0.00 | 83 | 1016.2 |
| 20260505084544 | 51 | 309 | 2.0 | 5.0 | 0.00 | 0.00 | 0.00 | 84 | 1016.2 |
| 20260505083050 | 51 | 321 | 3.0 | 6.0 | 0.00 | 0.00 | 0.00 | 84 | 1016.1 |
| 20260505081546 | 50 | 321 | 2.0 | 6.0 | 0.00 | 0.00 | 0.00 | 85 | 1016.3 |
| 20260505080043 | 50 | 333 | 2.0 | 7.0 | 0.00 | 0.00 | 0.00 | 87 | 1016.3 |
| 20260505074542 | 49 | 8 | 2.0 | 6.0 | 0.00 | 0.00 | 0.00 | 89 | 1016.3 |
| 20260505073050 | 48 | 36 | 2.0 | 6.0 | 0.00 | 0.00 | 0.00 | 91 | 1016.3 |
| 20260505071551 | 45 | 169 | 0.0 | 2.0 | 0.00 | 0.00 | 0.00 | 92 | 1016.3 |
| 20260505070105 | 45 | 209 | 0.0 | 4.0 | 0.00 | 0.00 | 0.00 | 91 | 1016.2 |
| 20260505064555 | 45 | 214 | 2.0 | 5.0 | 0.00 | 0.00 | 0.00 | 91 | 1016.3 |
| 20260504193102 | 52 | 331 | 0.0 | 4.0 | 0.00 | 0.00 | 0.00 | 85 | 1017.2 |
| 20260504191536 | 52 | 328 | 0.0 | 4.0 | 0.00 | 0.00 | 0.00 | 84 | 1017.2 |
| 20260504190041 | 52 | 323 | 2.0 | 7.0 | 0.00 | 0.00 | 0.00 | 83 | 1017.1 |
| 20260504184544 | 54 | 356 | 2.0 | 6.0 | 0.00 | 0.00 | 0.00 | 81 | 1017.2 |